Regional Weather Roundup
Issued by NWS Portland, ME

Current Version | Previous Version | Text Only | Print | Product List | Glossary On
Versions: 1 2 3 4 5 6 7 8 9 10 11 12 13 14 15 16 17 18 19 20 21 22 23 24 25 26 27 28 29 30 31 32 33 34 35 36 37 38 39 40 41 42 43 44 45 46 47 48 49 50
000
ASUS41 KGYX 040110
RWRGYX
WEATHER ROUNDUP FOR MAINE AND NEW HAMPSHIRE
NATIONAL WEATHER SERVICE GRAY ME
900 PM EDT MON AUG 03 2015

MEZ002-005-006-010-012-015-018-020-021-024-026-027-029-040200-
MAINE

CITY           SKY/WX    TMP DP  RH WIND       PRES   REMARKS
PORTLAND       MOCLDY    73  63  70 CALM      29.76R
SANFORD        MOCLDY    72  57  60 CALM      29.78R
BAR HARBOR     CLOUDY    70  70 100 S9        29.82R
WISCASSET      MOCLDY    73  63  70 MISG      29.79R
ROCKLAND       CLOUDY    66  64  94 S6        29.78S
FRYEBURG       LGT RAIN  65  65 100 SE5       29.78R
LEWISTONAUBURN CLOUDY    70  57  64 CALM      29.77F
AUGUSTA        MOCLDY    75  59  57 SW8G16    29.79R
WATERVILLE     CLOUDY    75  59  57 SW15G25   29.76R
BANGOR         MOCLDY    70  63  78 S13       29.80R
GREENVILLE       N/A     62  62 100 VRB3      29.81R
MILLINOCKET    CLOUDY    76  59  55 N10       29.82R
HOULTON        CLOUDY    73  58  59 N7        29.80R
PRESQUE ISLE   CLOUDY    64  57  77 CALM      29.80R
FRENCHVILLE    LGT RAIN  63  62  97 SE14      29.77R
CARIBOU        LGT RAIN  63  61  93 SE5       29.79R
$$

NHZ002-005-008-009-011-012-014-040200-
NEW HAMPSHIRE

CITY           SKY/WX    TMP DP  RH WIND       PRES   REMARKS
PORTSMOUTH     MOCLDY    78  63  59 S5        29.74R
ROCHESTER      MOCLDY    73  59  61 CALM      29.76R
NASHUA         MOCLDY    80  63  55 VRB6      29.77R
MANCHESTER     MOCLDY    81  61  50 SW9G18    29.75R THUNDER
CONCORD        CLOUDY    66  62  87 CALM      29.78R THUNDER
LACONIA        MOCLDY    64  61  88 CALM      29.78R
BERLIN         LGT RAIN  64  61  90 CALM      29.78R
WHITEFIELD     CLOUDY    63  61  93 CALM      29.78R
JAFFREY        CLOUDY    77  62  59 S7        29.81R
KEENE          MOCLDY    70  63  78 CALM      29.78R
LEBANON        CLOUDY    67  64  90 SE3       29.76S
MT WASHINGTON  MOCLDY    52  46  82 W40         N/A
$$

VTZ005-007-008-040200-
VERMONT

CITY           SKY/WX    TMP DP  RH WIND       PRES   REMARKS
ST JOHNSBURY     N/A     68  62  81 MISG      29.74R
MONTPELIER     PTCLDY    71  61  70 SW7       29.80R
BURLINGTON     PTCLDY    76  59  55 N6        29.73R
$$

MAZ007-012-024-CTZ003-RIZ002-NYZ038-NYZ072-040200-
SOUTHERN NEW ENGLAND AND NY

CITY           SKY/WX    TMP DP  RH WIND       PRES   REMARKS
BOSTON         MOCLDY    77  63  61 S13       29.79R
WORCESTER      MOCLDY    74  64  71 S14G22    29.83R
NANTUCKET      CLEAR     74  71  91 S14       29.85R
PROVIDENCE     PTCLDY    76  69  79 SW13      29.82R
HARTFORD       MOCLDY    80  65  59 S10G18    29.77R
ALBANY         MOCLDY    72  67  84 VRB3      29.76R THUNDER
NEW YORK CITY  PTCLDY    87  58  37 SW10      29.78R
$$

ANZ081-ANZ082-ANZ150-NHZ014-MEZ023>029-040200-
COASTAL MARINE OBSERVATIONS

STATION/POSITION TIME  TEMP    WIND        PRES    WAVE
                       AIR SEA DIR/SP/G            HT/PER
                 (UTC) (F)     (DEG/KT/KT) (MB)    (FT/S)
MOUNT DESERT ROC 0100   63     170/ 18/ 18 1010.0R
MATINICUS ROCK   0000   63     180/ 21/ 22 1008.4R
ISLE OF SHOALS   0000   75     200/ 23/ 24 1007.0R
JEFFREYS LEDGE   0003      65                N/A     4/ 5
CASHES LEDGE BUO 0050   68                 1008.7R   4/ 5
GEORGES BANK BUO 0050   71 66  170/ 10/ 12 1013.7F   4/ 8
$$

.............KEY..............
   WCI - WIND CHILL
   TC  - TEMPERATURE IN CELSIUS
   VSB - VISIBILITY IN MILES
   HX  - HEAT INDEX
   FAIR- INDICATES FEW OR NO CLOUDS BELOW 12,000 FT, WITH NO
         SIGNIFICANT WEATHER AND/OR OBSTRUCTIONS TO VISIBILITY.




USA.gov is the U.S. government's official web portal to all federal, state and local government web resources and services.